Hourly Weather Roundup
Issued by NWS Central Illinois

Home | Current Version | Previous Version | Text Only | Print | Product List | Glossary On
Versions: 1 2 3 4 5 6 7 8 9 10 11 12 13 14 15 16 17 18 19 20 21 22 23 24 25 26 27 28 29 30 31 32 33 34 35 36 37 38 39 40 41 42 43 44 45 46 47 48 49 50
000
NZUS43 KILX 242110
HWRILX

AREA WEATHER ROUNDUP
NATIONAL WEATHER SERVICE, LINCOLN IL
400 PM CDT SUN MAY 24 2015


CITY           SKY/WX    TMP DP  RH WIND       PRES   REMARKS
BLOOMINGTON    PTSUNNY   85  65  51 S30       29.97F HX  86
CHAMPAIGN      PTSUNNY   85  60  42 S22G32    29.99F HX  85
DANVILLE       MOSUNNY   84  61  46 S20G28    30.00F HX  84
DECATUR        PTSUNNY   83  62  49 S20G30    29.97F HX  84
EFFINGHAM      PTSUNNY   83  59  43 SE13      30.02F HX  83
FLORA          MOSUNNY   84  62  46 S20G26    30.02F HX  85
GALESBURG      PTSUNNY   79  64  59 S16G25    29.89F HX  81
JACKSONVILLE   MOSUNNY   87  63  44 S17G31    29.90F HX  87
LACON          PTSUNNY   81  67  63 S10G17    29.92F HX  83
LAWRENCEVILLE  PTSUNNY   84  62  47 S18G30    30.05F HX  85
LITCHFIELD     MOSUNNY   80  63  55 S18G29    29.95F HX  81
$$


CITY           SKY/WX    TMP DP  RH WIND       PRES   REMARKS
LINCOLN        PTSUNNY   84  61  45 S23G32    29.92F HX  84
MACOMB         PTSUNNY   83  64  52 S21       29.90F HX  84
MATTOON        MOSUNNY   82  62  50 S17G26    30.01F HX  83
MT CARMEL AP   MOSUNNY   88  54  31 SE16G26   30.04F HX  86
OLNEY-NOBLE AP PTSUNNY   82  63  51 SE18G26   30.02F HX  83
PARIS          PTSUNNY   84  60  44 S20       30.04F HX  84
PEORIA         CLOUDY    82  64  54 S14       29.92F HX  83
PONTIAC        PTSUNNY   86  65  48 S20G30    29.96F HX  88
RANTOUL        PTSUNNY   85  61  44 S21G29    29.99F HX  86
ROBINSON       FAIR      84  59  42 S16       30.06F HX  84
SPRINGFIELD    PTSUNNY   87  63  44 S21G35    29.94F HX  88
TAYLORVILLE    PTSUNNY   82  63  51 S23G30    29.96F HX  83
$$

...REGIONAL REPORTS...


CITY           SKY/WX    TMP DP  RH WIND       PRES   REMARKS
CHICAGO O`HARE LGT RAIN  69  55  60 NE7       30.00F
KANKAKEE       PTSUNNY   82  64  56 S16G28    29.99F HX  83
MOLINE         LGT RAIN  76  69  79 S7        29.88F
MOUNT VERNON   PTSUNNY   84  64  51 S15       30.01F HX  86
PITTSFIELD     MOSUNNY   84  64  50 S17G26    29.89F HX  85
QUINCY         PTSUNNY   81  65  58 S15G24    29.86F HX  83
ROCKFORD       LGT RAIN  68  62  81 E13       29.97F
$$


CITY           SKY/WX    TMP DP  RH WIND       PRES   REMARKS
BURLINGTON     LGT RAIN  76  70  82 S17G25    29.87F
CEDAR RAPIDS   CLOUDY    69  67  93 SE13      29.86F
DES MOINES     CLOUDY    71  64  78 S12       29.81F
KIRKSVILLE     HVY RAIN  68  67  96 W5        29.84F FOG
OTTUMWA        CLOUDY    71  66  84 S9        29.85F
ST LOUIS       PTSUNNY   85  64  49 S20G29    29.92F HX  86
$$


CITY           SKY/WX    TMP DP  RH WIND       PRES   REMARKS
TERRE HAUTE    CLOUDY    82  61  48 S18       30.06F HX  83
EVANSVILLE     MOSUNNY   83  63  50 S15       30.06F HX  84
INDIANAPOLIS   PTSUNNY   82  53  36 S20G26    30.08F HX  81
LAFAYETTE      PTSUNNY   81  58  45 S14G24    30.04F HX  81
MADISON        RAIN      59  56  89 E13       30.00F FOG
MILWAUKEE      CLOUDY    53  47  79 E10       30.05F
$$





USA.gov is the U.S. government's official web portal to all federal, state and local government web resources and services.